Regional Weather Roundup
Issued by NWS

Home | Current Version | Previous Version | Graphics & Text | Print | Product List | Glossary On
Versions: 1 2 3 4 5 6 7 8 9 10 11 12 13 14 15 16 17 18 19 20 21 22 23 24 25 26 27 28 29 30 31 32 33 34 35 36 37 38 39 40 41 42 43 44 45 46 47 48 49 50
000
ASUS43 KLMK 172310
RWRKY
KENTUCKY REGIONAL WEATHER ROUNDUP
NATIONAL WEATHER SERVICE LOUISVILLE KY
600 PM EST SUN DEC 17 2017

NOTE "FAIR" INDICATES FEW OR NO CLOUDS BELOW 12,000 FEET
WITH NO SIGNIFICANT WEATHER AND/OR OBSTRUCTIONS TO VISIBILITY.

KYZ001>023-026-027-061>063-070>075-180000-
WESTERN AND SOUTH CENTRAL KENTUCKY

CITY           SKY/WX    TMP DP  RH WIND       PRES   REMARKS
PADUCAH        CLOUDY    47  41  80 CALM      30.09R
HENDERSON      CLOUDY    43  41  93 SE5       30.10R
OWENSBORO      CLOUDY    42  41  96 SE7       30.10F FOG
HOPKINSVILLE   CLOUDY    43  43 100 CALM      30.11R FOG
BOWLING GREEN  CLOUDY    45  43  93 E3        30.12S
GLASGOW        CLOUDY    43  39  86 CALM      30.11F
$$

KYZ024-025-028>034-038-045-046-053-180000-
NORTH CENTRAL KENTUCKY

CITY           SKY/WX    TMP DP  RH WIND       PRES   REMARKS
LOUISVILLE/SDF CLOUDY    44  38  79 S7        30.11S
LOUISVILLE/LOU CLOUDY    44  39  82 S8        30.12R
FORT KNOX      CLOUDY    41  41 100 SE5       30.09F
$$

KYZ035>037-039>044-047>052-055>060-089>105-180000-
NORTHEAST KENTUCKY

CITY           SKY/WX    TMP DP  RH WIND       PRES   REMARKS
LEXINGTON      CLOUDY    40  37  89 CALM      30.13S FOG
COVINGTON      CLOUDY    43  34  70 S6        30.09R
FRANKFORT      CLOUDY    41  37  86 S3        30.11F
$$

KYZ054-064>069-076>088-106>120-180000-
SOUTHEAST KENTUCKY

CITY           SKY/WX    TMP DP  RH WIND       PRES   REMARKS
JACKSON        CLOUDY    39  36  89 CALM      30.12F
LONDON         CLOUDY    42  35  76 CALM      30.12F
SOMERSET       CLOUDY    43  34  70 S5        30.13S
MIDDLESBORO    CLOUDY    42  36  77 SE9       30.14F
MONTICELLO     CLOUDY    44  37  76 E8        30.14R
$$





USA.gov is the U.S. government's official web portal to all federal, state and local government web resources and services.